SCP
0 0 0 0 1 1 1 1 1 1 0 0 0 0 0 0 0 0 0 0 0 0 0 0 0 0 0 0 0 0 0 0 0 0 0 0 0 0 0 0 0 0 0
0 0 0 0 1 1 1 1 1 0 0 0 0 0 0 0 0 0 0 0 0 0 0 0 0 0 0 0 0 0 0 0 0 0 0 0 0 0 0 0 0 0 0
0 0 0 0 0 0 0 0 0 0 0 0 0 0 0 0 0 0 0 0 0 0 0 0 0 0 0 0 0 0 0 0 0 0 0 0 0 0 0 0 0 0 0
0 0 0 0 0 0 0 0 0 0 0 0 0 0 0 0 0 0 0 0 0 0 0 0 0 0 0 0 0 0 0 0 0 0 0 0 0 0 0 0 0 0 0
0 0 0 0 0 0 0 0 0 0 0 0 0 0 0 0 0 0 0 0 0 0 0 0 0 0 0 0 0 0 0 0 0 0 0 0 0 0 0 0 0 0 0
0 0 0 0 0 0 0 0 0 0 0 0 0 0 0 0 0 0 0 0 0 0 0 0 0 0 0 0 0 0 0 0 0 0 0 0 0 0 0 0 0 0 0
0 0 0 0 0 0 0 0 0 0 0 0 0 0 0 0 0 0 0 0 0 0 0 0 0 0 0 0 0 0 0 0 0 0 0 0 0 0 0 0 0 0 0
1 0 0 0 0 0 0 0 0 0 0 0 0 0 0 0 0 0 0 0 0 0 0 0 0 0 0 0 0 0 0 0 0 0 0 0 0 0 0 0 0 0 0
0 0 0 0 0 0 0 0 0 0 0 0 0 0 0 0 0 0 0 0 0 0 0 0 0 0 0 0 0 0 0 0 0 0 0 0 0 0 0 0 0 0 0
0 0 0 0 0 0 0 0 0 0 0 0 0 0 0 0 0 0 0 0 0 0 0 0 0 0 0 0 0 0 0 0 0 0 0 0 0 0 0 0 0 0 0
0 0 0 0 0 0 0 0 0 0 0 0 0 0 0 0 0 0 0 0 0 0 0 0 0 0 0 0 0 0 0 0 0 0 0 0 0 0 0 0 0 0 0
1 0 0 0 0 0 0 0 0 0 0 0 0 0 0 0 0 0 0 0 0 0 0 0 0 0 0 -0 0 0 0 0 0 0 0 0 0 0 0 0 0 0 0
1 1 0 0 0 0 0 0 0 0 0 0 0 0 0 0 0 0 0 0 0 0 0 0 0 0 0 -0 0 0 0 0 0 0 0 0 0 0 0 0 0 0 0
1 1 1 0 0 0 0 0 0 0 0 0 0 0 0 0 0 0 0 0 0 0 0 0 0 0 0 -0 0 0 0 0 0 0 0 0 0 0 0 0 0 0 0
1 1 1 1 0 0 0 0 0 0 0 0 0 0 0 0 0 0 0 0 0 0 0 0 0 0 0 0 0 0 0 0 0 0 0 0 0 0 0 0 0 0 0
1 1 1 1 1 1 0 0 0 0 0 0 0 0 0 0 0 0 0 0 0 0 0 0 0 0 0 0 0 0 0 0 0 0 0 0 0 0 0 0 0 0 0
1 1 1 1 1 1 1 1 0 0 0 0 0 0 0 0 0 0 0 0 0 0 0 0 0 0 0 0 0 0 0 0 0 0 0 0 0 0 0 0 0 0 0
0 1 1 1 1 1 1 1 1 0 0 0 0 0 0 0 0 0 0 0 0 0 0 0 0 0 0 0 0 0 0 0 0 0 0 0 0 0 0 0 0 0 0
0 0 1 1 2 2 1 1 1 1 1 0 0 0 0 0 0 0 0 0 0 0 0 0 0 0 0 0 0 0 0 0 0 0 0 0 0 0 0 0 0 0 0
0 0 1 1 2 2 2 2 1 1 1 1 0 0 0 0 0 0 0 0 0 0 0 0 0 0 0 0 0 0 0 0 0 0 0 0 0 0 0 0 0 0 0
0 0 1 1 1 2 2 2 2 1 1 1 0 0 0 0 0 0 0 0 0 0 0 0 0 0 0 0 0 0 0 0 0 0 0 0 0 0 0 0 0 0 0
0 0 0 1 1 2 2 2 2 1 1 1 0 0 0 0 0 0 0 0 0 0 0 0 0 0 0 0 0 0 0 0 0 0 0 0 0 0 0 0 0 0 0
0 0 0 1 1 1 2 2 1 1 1 0 0 0 0 0 0 0 0 0 0 0 0 0 0 0 0 0 0 0 0 0 0 0 0 0 0 0 0 0 0 0 0
0 0 0 0 1 1 2 2 1 1 0 0 0 0 0 0 0 0 0 0 0 0 0 0 0 0 0 0 0 0 0 0 0 0 0 0 0 0 0 0 0 0 0
0 0 0 0 1 1 1 1 1 1 1 0 0 0 0 0 0 0 0 0 0 0 0 0 0 0 0 0 0 0 0 0 0 0 0 0 0 0 0 0 0 0 0
0 0 0 0 1 1 1 1 1 1 0 0 0 0 0 0 0 0 0 0 0 0 0 0 0 0 0 0 0 0 0 0 0 0 0 0 0 0 0 0 0 0 0
Wind_Speed
8 9 17 17 17 17 16 16 17 17 18 17 17 16 15 14 12 11 10 8 8 7 8 9 11 12 12 12 12 11 10 10 10 9 8 7 7 7 8 8 7 4 8
10 11 17 17 18 17 17 17 17 17 17 17 16 15 14 13 12 11 9 8 8 8 9 11 12 13 13 12 11 10 9 9 8 6 4 3 3 5 6 6 5 3 6
14 12 15 17 17 18 17 17 17 17 17 17 16 15 14 12 11 10 10 10 10 10 11 12 13 13 12 11 10 9 8 7 6 5 3 2 0 4 5 5 4 4 3
15 12 12 16 18 18 18 18 17 17 17 16 15 14 13 12 12 11 10 11 11 12 12 13 13 12 11 10 9 7 6 6 7 6 3 2 1 4 5 4 3 3 3
13 11 13 17 18 18 18 17 17 17 17 16 15 14 13 13 12 11 11 10 11 11 11 12 11 11 10 8 7 6 5 6 7 5 3 3 1 4 6 5 4 3 3
11 9 12 17 18 18 18 17 17 17 17 16 15 14 14 13 12 12 11 10 10 10 10 10 10 9 8 7 5 5 5 7 6 3 3 2 1 5 6 6 5 5 4
11 10 11 17 18 18 17 17 17 17 17 16 15 15 14 13 13 12 11 10 10 10 10 10 9 8 7 5 4 4 6 7 5 4 3 2 2 7 8 8 8 9 9
15 11 11 16 16 16 17 17 17 17 17 16 15 15 14 14 13 12 11 10 10 9 9 9 8 7 5 4 3 4 6 6 5 4 3 2 5 8 9 10 10 10 11
14 12 9 9 11 14 15 15 15 16 15 15 15 15 14 13 13 12 11 10 9 9 8 8 7 6 4 3 3 4 5 6 4 2 3 2 6 9 10 11 11 12 13
11 11 10 8 7 7 9 12 13 13 13 13 13 13 12 11 12 11 9 9 9 8 8 7 6 5 3 2 3 5 6 6 4 3 2 3 8 10 10 11 11 11 12
11 10 10 9 8 7 7 10 10 11 11 12 11 13 11 6 6 7 7 8 8 8 7 7 6 4 2 2 5 7 7 3 4 3 1 6 10 11 12 11 11 11 11
14 12 10 10 10 8 8 6 5 5 6 6 6 7 5 5 4 6 8 9 8 7 6 6 4 2 2 2 4 6 3 4 4 2 3 10 11 11 11 11 11 10 10
15 14 12 11 11 10 6 6 4 3 4 5 6 6 5 4 3 4 3 4 4 4 2 2 2 1 2 2 3 3 4 4 3 2 4 10 10 10 10 10 10 10 10
15 16 14 13 12 11 8 7 6 5 5 5 6 7 5 4 4 4 3 3 3 2 2 2 2 2 3 3 4 5 5 3 3 2 4 10 10 10 10 9 9 9 9
15 16 16 15 14 12 10 8 8 7 7 7 6 7 7 5 5 4 4 3 3 3 3 3 3 3 4 4 4 5 5 4 4 3 3 10 11 10 9 9 8 9 9
13 15 15 16 16 14 11 10 9 8 8 7 7 8 9 6 6 6 5 4 4 3 3 3 4 4 3 3 4 4 4 4 4 4 3 6 10 9 8 8 8 9 9
12 13 15 17 16 16 14 12 9 9 8 8 8 8 9 8 8 7 5 5 4 4 4 4 4 4 3 3 4 3 3 3 4 4 4 3 4 6 7 7 7 8 9
9 11 14 15 15 16 14 13 9 9 9 8 8 8 10 10 10 8 6 5 5 5 5 5 4 3 3 3 2 2 2 3 4 4 3 3 2 2 4 5 6 7 9
10 11 13 14 16 16 15 12 10 9 10 8 7 8 10 10 10 8 6 6 6 5 4 5 3 3 2 2 1 1 1 2 3 4 4 4 3 3 2 3 4 5 7
9 10 12 13 15 14 11 8 6 7 8 7 8 8 10 9 10 9 7 7 7 6 4 4 4 3 2 2 2 2 1 1 2 3 4 3 3 3 2 2 2 2 5
8 9 11 13 13 12 9 10 9 9 8 7 7 9 10 10 10 9 8 8 7 6 6 7 4 4 2 1 2 2 2 2 1 1 1 2 2 2 2 2 1 0 2
8 9 10 12 13 14 13 12 9 8 6 6 5 7 9 11 11 10 11 9 7 7 7 6 5 4 2 2 2 2 1 2 2 1 0 1 1 1 1 1 1 1 2
7 9 9 11 12 13 12 7 5 4 3 2 4 5 7 9 10 10 11 10 8 8 7 6 6 6 4 2 1 3 3 3 2 2 2 1 1 1 1 1 2 3 4
8 7 8 9 10 11 11 11 13 11 9 9 7 5 5 7 9 10 11 10 9 7 8 7 5 4 5 3 2 2 2 3 2 1 2 2 1 1 1 2 3 4 4
6 5 6 7 8 9 11 14 15 11 7 5 6 7 6 5 7 9 10 9 9 7 7 7 6 5 4 4 3 2 2 2 2 2 2 3 3 2 2 3 3 3 4
4 4 4 5 7 9 11 13 15 13 11 12 11 10 7 5 5 8 9 9 8 8 8 7 6 7 5 5 4 3 3 2 2 2 2 2 3 3 3 3 2 2 2
Wind_Direction
155 160 152 147 141 138 136 135 133 130 128 125 122 120 117 115 113 111 109 109 114 126 131 129 126 123 116 107 100 94 90 87 84 79 71 64 65 75 74 68 65 55 71
146 154 150 147 142 139 137 134 133 131 130 128 126 124 123 123 121 117 110 108 113 121 127 126 125 119 114 108 101 96 92 87 82 77 77 64 45 70 78 75 69 66 70
144 149 148 147 143 140 138 137 136 135 134 132 130 128 127 126 124 120 111 107 109 111 116 118 117 113 111 107 102 97 89 78 66 59 94 134 89 81 83 86 77 70 64
145 146 148 147 145 143 142 142 141 140 138 136 134 131 129 128 127 123 116 114 109 106 108 110 111 113 111 107 103 95 79 57 43 50 86 146 217 79 78 78 65 57 41
142 142 150 149 147 146 145 146 146 144 143 140 137 134 131 130 129 126 120 117 113 109 112 112 112 113 112 108 101 86 60 39 38 49 106 139 188 73 71 63 51 42 24
136 139 152 150 149 148 148 148 147 146 145 142 140 137 135 134 133 129 126 125 122 119 119 118 117 115 113 109 98 74 47 39 48 66 110 131 137 73 69 65 54 43 34
139 143 154 152 152 151 151 151 151 150 148 146 144 141 139 137 136 136 136 135 131 127 126 125 123 120 116 108 90 60 43 44 59 78 98 99 77 73 66 61 55 53 51
145 149 156 155 154 155 155 155 154 154 152 151 149 146 143 142 142 143 145 142 138 135 131 128 127 125 118 106 77 49 43 55 71 83 83 73 75 72 67 65 62 59 57
148 151 154 156 157 158 158 158 158 157 157 157 156 151 147 147 149 151 153 150 145 142 140 137 135 131 127 107 64 39 44 71 88 92 87 68 77 78 75 70 66 62 59
152 156 155 154 155 156 159 162 161 160 160 161 157 150 150 154 158 158 159 158 153 152 150 147 144 140 129 92 54 50 64 74 79 78 67 82 84 83 78 72 65 61 60
162 163 161 158 157 155 160 168 164 162 165 162 156 155 154 156 158 162 167 166 164 163 162 160 154 149 126 45 47 65 74 80 88 77 62 93 91 86 79 71 66 63 59
174 174 170 167 165 162 170 163 163 165 165 160 159 161 157 158 166 170 176 175 173 172 172 168 157 138 104 51 52 70 78 87 80 69 84 95 92 88 81 73 67 60 55
177 178 179 177 172 171 170 163 169 166 166 167 169 169 164 164 171 171 167 175 176 172 164 146 113 90 95 92 81 83 93 87 75 59 79 92 93 91 85 76 67 57 49
178 184 182 181 178 178 175 174 176 176 178 182 184 178 169 172 177 175 177 175 171 160 154 135 117 108 99 97 99 99 100 100 93 74 83 93 93 92 86 77 65 53 42
183 186 185 184 182 181 178 181 183 186 188 190 190 189 182 180 182 181 183 178 175 164 157 144 129 115 101 90 87 98 106 112 107 88 85 97 96 92 84 72 59 45 33
191 189 186 187 186 183 183 185 186 189 191 193 197 193 188 185 182 180 178 174 174 166 153 140 131 116 100 92 82 86 104 118 115 111 94 97 103 98 87 70 53 39 27
198 193 190 190 187 186 187 189 188 190 190 195 200 196 190 185 180 177 173 171 170 152 134 116 109 98 91 82 78 81 99 120 131 129 116 100 100 101 95 75 53 37 24
200 197 196 194 190 191 190 190 190 189 190 194 194 193 190 185 177 170 168 166 155 140 133 126 120 96 81 81 76 65 91 121 138 143 135 132 125 111 102 91 60 36 21
206 200 198 198 192 194 193 190 190 187 190 190 188 188 188 182 173 165 163 155 146 136 133 131 110 113 104 94 98 91 95 130 145 152 157 164 163 148 133 98 75 42 16
218 205 202 201 196 194 191 184 183 185 189 186 186 184 178 175 169 159 153 151 144 136 131 125 115 92 97 108 83 66 48 90 133 154 167 168 173 164 146 117 79 17 4
228 216 206 202 200 190 185 185 186 192 190 188 187 180 175 170 165 158 154 152 150 147 148 138 120 107 84 79 92 55 16 26 79 131 153 156 165 152 137 129 131 328 324
232 223 215 206 202 196 195 192 189 184 182 181 177 178 176 170 166 162 157 158 153 141 142 145 135 122 97 66 125 118 47 341 344 27 53 149 129 96 90 72 342 312 301
236 226 221 212 206 202 194 174 139 107 88 128 174 177 178 169 165 161 160 155 153 151 157 155 145 137 137 90 76 141 151 214 289 331 12 53 89 93 44 1 351 327 313
239 231 225 217 208 202 189 176 172 176 179 186 177 163 157 161 160 157 156 153 152 149 151 152 145 138 133 137 106 68 104 139 151 301 325 354 9 57 5 348 337 324 325
249 239 232 223 211 201 193 187 187 186 172 145 141 145 147 148 152 153 152 149 149 146 145 138 135 129 128 141 142 130 104 79 97 150 279 316 328 314 313 309 312 321 332
276 260 244 227 219 206 197 191 192 181 157 152 157 159 154 147 146 150 148 146 144 142 141 135 131 126 122 122 121 123 136 140 149 159 221 275 288 289 291 291 292 308 333